Location: *
(34.8620°S, 39.3380°E)
Time: 22:41:24
(UTC+00:00)

SL-19 R/B - Pass Details

Date: 27 July 2021
Orbit: 874 x 1208 km, 100.6° (Epoch: 20 September)

Event Time Altitude Azimuth Distance (km) Brightness Sun altitude
Rises 02:40:51 0° 166° (SSE) 3,715 7.6 -20.5°
Reaches altitude 10° 02:43:24 10° 167° (SSE) 2,717 6.9 -20.0°
Maximum altitude 02:49:25 82° 253° (WSW) 932 4.3 -18.8°
Drops below altitude 10° 02:55:03 10° 340° (NNW) 2,543 6.6 -17.6°
Sets 02:57:22 0° 340° (NNW) 3,461 7.3 -17.2°
